SALSAT

Last updated on Sun Jun 21 2026 00:03:20 GMT+0000 (Coordinated Universal Time)

1 46495U 20068K 26170.95810387 .00006379 00000+0 22355-3 0 9995 2 46495 97.8854 174.1914 0007892 296.5001 63.5428 15.29832652315782
UTC large
Height (km)
Speed (km/s)
/
Latitude / Longitude
Inclination (degrees)
Orbital Period (minutes)
Azimuth
Elevation
Range (km)
Doppler Factor

Next 0 passes for location: London (51.5072 / 0.1276)

No passes found over London.
SALSAT